Ketchikan, AK

9:55 AM AKST on November 13, 2018 (GMT -0900)
Ketchikan International

Weather History for PAKT - November, 2017

Change the Weather History Date:

Friday, November 3, 2017

  Actual Average Record
Temperature  
Mean Temperature 32 °F -  
Max Temperature 39 °F 48 °F 65 °F (1962)
Min Temperature 28 °F 37 °F 22 °F (1973)
Degree Days  
Heating Degree Days 32    
Moisture  
Dew Point 22 °F    
Average Humidity 63    
Maximum Humidity 82    
Minimum Humidity 40    
Precipitation  
Precipitation 0.00 in - - ()
Sea Level Pressure  
Sea Level Pressure 30.22 in    
Wind  
Wind Speed 4 mph (WNW)    
Max Wind Speed 10 mph    
Max Gust Speed -    
Visibility 10 miles    
Events Snow    
Averages and records for this station are not official NWS values.
T = Trace of Precipitation, MM = Missing Value Source: NWS Daily Summary

Daily Weather History Graph

Daily Weather History Graph

Search for Another Location

Airport or City:

Astronomy

Nov. 03, 2017 Rise Set
Actual Time 7:56 AM AKDT 5:03 PM AKDT
Civil Twilight 7:17 AM AKDT 5:42 PM AKDT
Nautical Twilight 6:33 AM AKDT 6:26 PM AKDT
Astronomical Twilight 5:51 AM AKDT 7:08 PM AKDT
Moon 5:30 PM AKDT (11/3) 6:50 AM AKDT (11/3)
Length of Visible Light 10h 25m
Length of Day
9h 06m
Full, 100% of the Moon is Illuminated
Nov 3
Full
Nov 3
Full
Nov 10
Last Quarter
Nov 18
New
Nov 26
First Quarter

Hourly Weather History & Observations

Time (AKDT) Temp. Windchill Dew Point Humidity Pressure Visibility Wind Dir Wind Speed Gust Speed Precip Events Conditions
12:53 AM 34.0 °F 29.8 °F 12.0 °F 40% 30.40 in 10.0 mi NW 4.6 mph - N/A   Clear
1:53 AM 30.9 °F 22.2 °F 19.0 °F 61% 30.38 in 10.0 mi NNW 10.4 mph - N/A   Clear
2:53 AM 30.9 °F 25.2 °F 21.0 °F 67% 30.37 in 10.0 mi NW 5.8 mph - N/A   Clear
3:53 AM 30.9 °F 25.2 °F 21.0 °F 67% 30.36 in 10.0 mi WNW 5.8 mph - N/A   Clear
4:53 AM 30.9 °F 25.2 °F 21.0 °F 67% 30.35 in 10.0 mi NW 5.8 mph - N/A   Clear
5:53 AM 32.0 °F 24.8 °F 21.9 °F 66% 30.34 in 10.0 mi NW 8.1 mph - N/A   Clear
6:10 AM 30.9 °F 23.5 °F 21.0 °F 67% 30.32 in 10.0 mi NW 8.1 mph - N/A   Clear
6:53 AM 30.2 °F 23.4 °F 21.2 °F 69% 30.31 in 10.0 mi NW 6.9 mph - N/A   Clear
7:53 AM 28.4 °F - 19.4 °F 69% 30.30 in 10.0 mi Calm Calm - N/A   Clear
8:53 AM 28.4 °F - 21.2 °F 74% 30.29 in 10.0 mi Calm Calm - N/A   Clear
9:53 AM 34.0 °F - 23.0 °F 64% 30.27 in 10.0 mi Calm Calm - N/A   Clear
10:53 AM 35.6 °F - 23.0 °F 60% 30.27 in 10.0 mi Calm Calm - N/A   Clear
11:53 AM 37.0 °F - 24.1 °F 59% 30.25 in 10.0 mi Calm Calm - N/A   Scattered Clouds
12:53 PM 37.9 °F - 23.0 °F 55% 30.22 in 10.0 mi Calm Calm - N/A   Clear
1:53 PM 37.4 °F - 24.8 °F 60% 30.19 in 10.0 mi Calm Calm - N/A   Mostly Cloudy
2:53 PM 37.4 °F - 23.0 °F 56% 30.18 in 10.0 mi Calm Calm - N/A   Partly Cloudy
3:53 PM 37.4 °F 34.9 °F 24.8 °F 60% 30.16 in 10.0 mi SSE 3.5 mph - N/A   Mostly Cloudy
4:53 PM 35.6 °F 32.8 °F 23.0 °F 60% 30.14 in 10.0 mi South 3.5 mph - N/A   Clear
5:53 PM 36.0 °F - 24.1 °F 62% 30.12 in 10.0 mi Calm Calm - N/A   Overcast
6:53 PM 35.6 °F - 21.2 °F 56% 30.10 in 10.0 mi Calm Calm - N/A   Overcast
7:53 PM 35.6 °F - 21.2 °F 56% 30.08 in 10.0 mi Calm Calm - N/A   Overcast
8:53 PM 34.0 °F - 23.0 °F 64% 30.07 in 10.0 mi Calm Calm - N/A   Overcast
9:53 PM 35.1 °F - 25.0 °F 67% 30.05 in 10.0 mi Calm Calm - N/A   Overcast
10:53 PM 35.1 °F 31.0 °F 21.0 °F 57% 30.05 in 10.0 mi WNW 4.6 mph - N/A   Overcast
11:53 PM 33.1 °F 27.7 °F 28.0 °F 82% 30.04 in 5.0 mi West 5.8 mph - 0.00 in Snow Light Snow